Meteo Giornale » Osservazioni meteo Stati Uniti (USA) » Orlando
ore: 13:53 - Osservazioni Meteo Orlando
Lat. 28° 25' N Lon. 81° 19' W Alt. 29 metri s.l.m.
29 °C
Pioggia
Temp. 24 Ore
25 °C
32 °C
Nord-Est
16.7 Km/h
Dew point 24 °C
Umidità 74 %
Visibilità 10 Km
Il sole sorge alle ore 07:03
Il sole tramonta alle ore 19:46
| Data e Ora | Cielo e Fenomeni | T °C | DP °C | Um. % | Pres. hPa | Vis. km | Vento km/h | |
|---|---|---|---|---|---|---|---|---|
| Oggi h: 13:53 | Pioggia | 29 | 24 | 74 | 1017 | 10 | NE 16.7 | |
| Oggi h: 12:53 | Pioggia | 28 | 24 | 78 | 1018 | 10 | E/NE 22.2 | |
| Oggi h: 11:53 | Molto Nuvoloso | 32 | 23 | 59 | 1017 | 10 | E/NE 11.1 | |
| Oggi h: 10:53 | Nuvoloso | 31 | 24 | 66 | 1017 | 10 | N 9.3 | |
| Oggi h: 09:53 | Nuvoloso | 29 | 25 | 79 | 1017 | 10 | N/NE 9.3 | |
| Oggi h: 08:53 | Nuvoloso | 28 | 26 | 88 | 1017 | 10 | NE 7.4 | |
| Oggi h: 07:53 | Nuvoloso | 26 | 25 | 94 | 1016 | 10 | N 7.4 | |
| Oggi h: 06:53 | Nuvoloso | 26 | 25 | 94 | 1016 | 10 | N 7.4 | |
| Oggi h: 05:53 | Poco Nuvoloso | 25 | 24 | 94 | 1016 | 10 | N 7.4 | |
| Oggi h: 04:53 | Nuvoloso | 26 | 25 | 94 | 1015 | 10 | N/NE 13 | |
| Oggi h: 03:53 | Poco Nuvoloso | 26 | 24 | 88 | 1015 | 10 | N 5.5 | |
| Oggi h: 02:53 | Poco Nuvoloso | 26 | 25 | 94 | 1016 | 10 | N 5.5 | |
| Oggi h: 01:53 | Nuvoloso | 26 | 25 | 94 | 1017 | 10 | N 5.5 | |
| Oggi h: 00:53 | Nuvoloso | 26 | 25 | 94 | 1017 | 10 | N 5.5 | |
| Ieri h: 23:53 | Molto Nuvoloso | 26 | 24 | 88 | 1017 | 10 | N/NE 7.4 | |
| Ieri h: 22:53 | Nuvoloso | 26 | 24 | 88 | 1017 | 10 | NE 9.3 | |
| Ieri h: 21:53 | Nuvoloso | 26 | 24 | 88 | 1017 | 10 | N 7.4 | |
| Ieri h: 20:53 | Molto Nuvoloso | 26 | 24 | 88 | 1017 | 10 | N 0 | |
| Ieri h: 19:53 | Molto Nuvoloso | 27 | 26 | 94 | 1016 | 10 | N 7.4 | |
| Ieri h: 18:53 | Molto Nuvoloso | 27 | 25 | 88 | 1016 | 10 | N 5.5 | |
| Ieri h: 17:53 | Molto Nuvoloso | 27 | 24 | 83 | 1017 | 10 | N 5.5 | |
| Ieri h: 16:53 | Pioggia | 26 | 24 | 88 | 1017 | 10 | N 5.5 | |
| Ieri h: 15:53 | Pioggia | 27 | 24 | 83 | 1017 | 10 | S 13 | |
| Ieri h: 15:18 | Molto Nuvoloso | 27 | 23 | 78 | 1017 | 10 | SE 9.3 | |
| Ieri h: 14:53 | Temporale | 27 | 23 | 78 | 1017 | 10 | E 11.1 | |



